Location: Star Hoppers Observatory
(42.7905°N, 83.6127°W)
Time: 11:12:08
(UTC-04:00)

NOSS 3-1 (A) - Visible Passes

Search period start: 18 April 2015 00:00
Search period end: 28 April 2015 00:00
Orbit: 886 x 1327 km, 63.4° (Epoch: 22 March)

Date Brightness Start Highest point End Pass type
(mag) Time Alt. Az. Time Alt. Az. Time Alt. Az.
18 Apr 4.1 05:46:58 10° SSW 05:52:48 56° ESE 05:59:14 10° NE visible
19 Apr 4.8 05:03:04 10° S 05:08:21 34° ESE 05:14:09 10° NE visible
20 Apr 5.4 04:19:51 10° SSE 04:24:01 20° ESE 04:28:38 10° ENE visible
20 Apr 3.6 06:08:10 10° SW 06:14:13 72° NW 06:20:55 10° NNE visible
21 Apr 5.8 03:38:20 10° ESE 03:39:46 11° ESE 03:41:40 10° E visible
21 Apr 3.6 05:24:16 14° SSW 05:29:32 75° ESE 05:36:09 10° NE visible
22 Apr 4.2 04:41:15 21° S 04:45:00 46° ESE 04:51:14 10° NE visible
23 Apr 4.9 03:58:10 21° SSE 04:00:36 28° ESE 04:06:02 10° NE visible
23 Apr 3.8 05:45:37 13° SW 05:51:06 56° NW 05:57:43 10° NNE visible
24 Apr 5.4 03:15:02 15° ESE 03:16:18 16° ESE 03:20:12 10° ENE visible
24 Apr 3.5 05:02:28 24° SW 05:06:19 84° NW 05:13:01 10° NE visible
25 Apr 3.7 04:19:17 37° S 04:21:41 63° ESE 04:28:12 10° NE visible
25 Apr 4.7 06:07:38 10° W 06:13:09 31° NW 06:19:06 10° NNE visible
26 Apr 4.3 03:36:03 35° SE 03:37:13 38° ESE 03:43:11 10° NE visible
26 Apr 4.2 05:23:29 17° WSW 05:28:04 44° NW 05:34:29 10° NNE visible
27 Apr 5.0 02:52:46 23° ESE 02:52:52 23° ESE 02:57:48 10° ENE visible
27 Apr 3.6 04:40:12 32° WSW 04:43:10 65° NW 04:49:51 10° NNE visible
